Home > Weather > Dundee > Past weeks

Flag for United Kingdom Past Weather in Dundee, Scotland, United Kingdom — Yesterday and Last 2 Weeks

Now
59 °F

Passing clouds.


Feels Like: 58 °F
Forecast: 52 / 62 °F
Wind: 6 mph from East

Location: Leuchars

Current Time: Aug 27, 2016 at 11:35:34 PM

Latest Report: Aug 27, 2016 at 10:50 PM


Visibility: N/A

Pressure: 29.98 "Hg

Humidity: 94%

Dew Point: 57 °F

Location of DundeeLocation

Past Weather in Dundee — Graph

°F

Dundee Temperature Yesterday

Maximum temperature yesterday: 68 °F (at 1:50 PM)
Minimum temperature yesterday: 52 °F (at 11:50 PM)
Average temperature yesterday: 60 °F

High & Low Weather Summary for the Past Weeks

 TemperatureHumidityPressure
High72 °F (Aug 21, 1:50 PM)100% (Aug 15, 5:50 AM)30.30 "Hg (Aug 15, 5:50 AM)
Low45 °F (Aug 16, 4:50 AM)43% (Aug 24, 12:50 PM)29.36 "Hg (Aug 20, 3:50 PM)
Average58 °F85%29.96 "Hg
* Reported Aug 12 9:50 PM — Aug 27 9:50 PM, Dundee, Weather by CustomWeather, © 2016

Note: Actual official high and low records may vary slightly from our data, if they occured in-between our weather recording intervals... More about our weather records

Advertising

Dundee Weather History for the Previous 24 Hours

Scroll right to see more
 ConditionsComfort  
Time TempWeatherWind HumidityBarometerVisibility
9:50 PM
Sat, Aug 27
59 °FPartly cloudy.7 mph94%30.01 "HgN/A
8:50 PM57 °FSunny.6 mph94%30.01 "Hg10 mi
7:50 PM59 °FSunny.8 mph88%30.01 "Hg10 mi
6:50 PM59 °FSunny.13 mph88%30.01 "Hg10 mi
5:50 PM61 °FSunny.10 mph83%30.01 "Hg10 mi
4:50 PM61 °FSunny.12 mph83%30.04 "Hg10 mi
3:50 PM61 °FSunny.14 mph77%30.04 "Hg10 mi
2:50 PM61 °FBroken clouds.13 mph83%30.07 "HgN/A
1:50 PM63 °FSunny.8 mph73%30.07 "Hg10 mi
12:50 PM61 °FSunny.9 mph77%30.09 "Hg10 mi
11:50 AM63 °FBroken clouds.8 mph73%30.09 "HgN/A
10:50 AM63 °FSunny.7 mph73%30.09 "Hg10 mi
9:50 AM61 °FSunny.5 mph77%30.09 "Hg10 mi
8:50 AM57 °FSunny.5 mph88%30.09 "Hg10 mi
6:50 AM52 °FClear.2 mph94%30.09 "Hg10 mi
5:50 AM52 °FClear.1 mph94%30.07 "Hg10 mi
3:50 AM52 °FClear.9 mph94%30.07 "Hg10 mi
2:50 AM52 °FClear.2 mph94%30.07 "Hg10 mi
1:50 AM54 °FClear.9 mph88%30.04 "Hg10 mi
12:50 AM52 °FClear.6 mph94%30.04 "Hg10 mi
11:50 PM
Fri, Aug 26
52 °FClear.6 mph88%30.04 "Hg10 mi
Weather by CustomWeather, © 2016

See weather overviewHow to use our weather pages